Berrien Springs, MI (49103)

4:29 AM EST on February 13, 2016 (GMT -0500)
Cole Farm | | Change Station
CLOSE
Current Station
Personal Weather Station
Location: Berrien Springs, MI
Elevation: 725 ft
Nearby Weather Stations
Active Advisory: Winter Weather Advisory

Elev 725 ft 41.94 °N, 86.41 °W | Updated 46 seconds ago

Snow
Snow
12.0 °F
Feels Like -3 °F
N
13.0
Wind Variable Wind from NW
Gusts 13.0 mph

Today
High -- | Low -- °F
--% Chance of Precip.
Yesterday
High -- | Low -- °F
Precip. -- in
Pressure 30.43 in
Visibility 0.8 miles
Clouds Mostly Cloudy 2300 ft
Overcast 5000 ft
Windchill -3 °F
Dew Point 1 °F
Humidity 61%
Rainfall 0.00 in
Snow Depth Not available.
7:44 AM 6:15 PM
Waxing Crescent, 29% visible
SPECI KBEH 130918Z AUTO 32010G17KT 3/4SM -SN BKN023 OVC050 M11/M14 A3043 RMK AO2 P0000 T11061144
Pressure 30.43 in
Visibility 0.8 miles
Clouds Mostly Cloudy 2300 ft
Overcast 5000 ft
Windchill -3 °F
Dew Point 1 °F
Humidity 61%
Rainfall 0.00 in
Snow Depth Not available.
7:44 AM 6:15 PM
Waxing Crescent, 29% visible
SPECI KBEH 130918Z AUTO 32010G17KT 3/4SM -SN BKN023 OVC050 M11/M14 A3043 RMK AO2 P0000 T11061144

10-Day Weather Forecast

Almanac

Astronomy

Feb. 13, 2016 Rise Set
Actual Time
Civil Twilight
Nautical Twilight
Astronomical Twilight
Moon
Length of Visible Light
Length of Day
Tomorrow will be .
, % of the Moon is Illuminated

Today's Extremes

State Highs State Lows

Community

WunderPhotos

Upload Photos

1,892,536 photos uploaded!

WunderBlog® & News

Nearby

Air Quality

  Air Quality AQ Index Pollutant
Not available.

Snow Depth

Station Depth Elevation

Earthquake Activity

City Distance Mag. Time & Date
Minimum magnitude displayed is 2.5.

Coastal Water Temperatures

Place Temperature

Stations

Nearby Weather Stations

Station Location Temp. Windchill Dew Point Humidity Wind Precip. Elev Updated Type
                   

Watches & Warnings

Winter Weather Advisory
Issued: 2:20 AM CST Feb. 13, 2016 – National Weather Service

... Winter Weather Advisory remains in effect until 4 PM EST /3 PM
CST/ this afternoon...

Hazardous weather...

* lake effect snow showers will gradually diminish in coverage
   and intensity today.

* Areas of blowing and drifting snow is expected this morning.

* Additional accumulations of 1 to 3 inches expected.

* Wind chills as low as 5 below to 10 below zero expected this
   morning.

Impacts...

* snow covered slick roads and areas of blowing snow will result
   in hazardous driving conditions.

* Frostbite will be possible for anyone who is outside for
   prolonged periods this morning.

Precautionary/preparedness actions...

A Winter Weather Advisory for snow and blowing snow means that
visibilities will be limited due to a combination of falling and
blowing snow. Use caution when traveling... especially in open
areas.